TimeCST,TemperatureF,Dew PointF,Humidity,Sea Level PressureIn,VisibilityMPH,Wind Direction,Wind SpeedMPH,Gust SpeedMPH,PrecipitationIn,Events,Conditions,WindDirDegrees,DateUTC
12:15 AM,21.2,12.2,68,29.86,10.0,SSW,11.5,16.1,N/A,,Clear,210,2013-01-16 06:15:00
12:35 AM,21.2,14.0,74,29.86,10.0,SW,11.5,-,N/A,,Clear,220,2013-01-16 06:35:00
12:55 AM,21.2,12.2,68,29.84,10.0,SW,12.7,-,N/A,,Clear,220,2013-01-16 06:55:00
1:15 AM,21.2,12.2,68,29.83,10.0,SSW,9.2,21.9,N/A,,Clear,210,2013-01-16 07:15:00
1:35 AM,21.2,12.2,68,29.82,10.0,SSW,11.5,19.6,N/A,,Scattered Clouds,210,2013-01-16 07:35:00
1:55 AM,21.2,12.2,68,29.80,10.0,SW,13.8,18.4,N/A,,Scattered Clouds,220,2013-01-16 07:55:00
2:15 AM,21.2,12.2,68,29.79,10.0,SW,10.4,18.4,N/A,,Clear,220,2013-01-16 08:15:00
2:35 AM,21.2,12.2,68,29.78,10.0,SW,11.5,18.4,N/A,,Clear,220,2013-01-16 08:35:00
3:15 AM,21.2,12.2,68,29.75,10.0,SW,11.5,20.7,N/A,,Clear,220,2013-01-16 09:15:00
3:35 AM,21.2,12.2,68,29.73,10.0,SW,12.7,18.4,N/A,,Clear,220,2013-01-16 09:35:00
3:55 AM,21.2,12.2,68,29.71,10.0,SW,11.5,19.6,N/A,,Clear,220,2013-01-16 09:55:00
4:15 AM,21.2,12.2,68,29.69,10.0,SW,11.5,17.3,N/A,,Scattered Clouds,220,2013-01-16 10:15:00
4:35 AM,21.2,12.2,68,29.68,10.0,SW,11.5,-,N/A,,Mostly Cloudy,220,2013-01-16 10:35:00
4:55 AM,21.2,12.2,68,29.66,10.0,SW,11.5,19.6,N/A,,Overcast,220,2013-01-16 10:55:00
5:15 AM,21.2,12.2,68,29.65,10.0,SW,17.3,20.7,N/A,,Overcast,220,2013-01-16 11:15:00
5:35 AM,23.0,14.0,68,29.64,7.0,SW,12.7,19.6,N/A,Snow,Light Snow,230,2013-01-16 11:35:00
6:15 AM,21.2,15.8,80,29.62,3.0,SW,15.0,20.7,N/A,Snow,Light Snow,230,2013-01-16 12:15:00
6:35 AM,21.2,17.6,86,29.61,4.0,SW,9.2,17.3,N/A,Snow,Light Snow,220,2013-01-16 12:35:00
6:55 AM,23.0,17.6,80,29.61,5.0,SW,10.4,19.6,N/A,,Haze,230,2013-01-16 12:55:00
7:15 AM,23.0,17.6,80,29.62,2.5,SW,13.8,-,N/A,Snow,Light Snow,230,2013-01-16 13:15:00
7:35 AM,23.0,19.4,86,29.62,2.5,WSW,13.8,21.9,N/A,Snow,Light Snow,240,2013-01-16 13:35:00
7:55 AM,23.0,19.4,86,29.62,1.5,WSW,13.8,17.3,N/A,Snow,Light Snow,240,2013-01-16 13:55:00
8:15 AM,23.0,19.4,86,29.62,2.0,WSW,12.7,21.9,N/A,Snow,Light Snow,240,2013-01-16 14:15:00
8:35 AM,23.0,19.4,86,29.62,3.0,WSW,13.8,18.4,N/A,Snow,Light Snow,240,2013-01-16 14:35:00
8:55 AM,23.0,19.4,86,29.63,1.8,WSW,8.1,16.1,N/A,Snow,Light Snow,240,2013-01-16 14:55:00
9:15 AM,23.0,19.4,86,29.63,5.0,WSW,8.1,-,N/A,,Overcast,240,2013-01-16 15:15:00
9:55 AM,24.8,21.2,86,29.63,10.0,WSW,11.5,-,N/A,,Overcast,250,2013-01-16 15:55:00
10:15 AM,26.6,21.2,80,29.64,10.0,West,10.4,-,N/A,,Overcast,260,2013-01-16 16:15:00
10:35 AM,26.6,23.0,86,29.64,10.0,WSW,10.4,-,N/A,,Overcast,250,2013-01-16 16:35:00
10:55 AM,26.6,23.0,86,29.64,7.0,West,11.5,-,N/A,,Overcast,270,2013-01-16 16:55:00
11:15 AM,26.6,23.0,86,29.64,4.0,West,10.4,-,N/A,,Overcast,270,2013-01-16 17:15:00
11:35 AM,26.6,24.8,93,29.64,2.5,West,11.5,-,N/A,,Overcast,260,2013-01-16 17:35:00
11:55 AM,26.6,24.8,93,29.64,3.0,West,10.4,-,N/A,,Overcast,270,2013-01-16 17:55:00
12:15 PM,26.6,26.6,100,29.64,4.0,WNW,8.1,-,N/A,,Overcast,290,2013-01-16 18:15:00
12:35 PM,28.4,26.6,93,29.65,5.0,WNW,9.2,-,N/A,,Overcast,290,2013-01-16 18:35:00
12:55 PM,28.4,26.6,93,29.65,7.0,WNW,11.5,-,N/A,,Overcast,290,2013-01-16 18:55:00
1:15 PM,28.4,26.6,93,29.67,7.0,WNW,8.1,-,N/A,,Overcast,290,2013-01-16 19:15:00
1:55 PM,28.4,24.8,86,29.68,10.0,WNW,8.1,-,N/A,,Overcast,290,2013-01-16 19:55:00
2:15 PM,30.2,24.8,80,29.69,10.0,WNW,8.1,-,N/A,,Overcast,300,2013-01-16 20:15:00
2:35 PM,30.2,24.8,80,29.70,10.0,WNW,6.9,19.6,N/A,,Overcast,300,2013-01-16 20:35:00
2:55 PM,30.2,24.8,80,29.71,10.0,NW,9.2,-,N/A,,Overcast,310,2013-01-16 20:55:00
3:35 PM,30.2,23.0,75,29.74,10.0,NNW,9.2,18.4,N/A,,Overcast,330,2013-01-16 21:35:00
3:55 PM,30.2,23.0,75,29.75,7.0,NW,11.5,18.4,N/A,Snow,Light Snow,310,2013-01-16 21:55:00
4:15 PM,30.2,24.8,80,29.77,3.0,NW,5.8,-,N/A,Snow,Light Snow,320,2013-01-16 22:15:00
4:55 PM,28.4,23.0,80,29.79,10.0,NW,8.1,-,N/A,,Overcast,310,2013-01-16 22:55:00
5:35 PM,28.4,19.4,69,29.83,10.0,NW,6.9,-,N/A,,Overcast,320,2013-01-16 23:35:00
5:55 PM,28.4,14.0,55,29.85,10.0,NNW,10.4,16.1,N/A,,Scattered Clouds,330,2013-01-16 23:55:00
6:15 PM,26.6,14.0,59,29.87,10.0,NNW,6.9,-,N/A,,Clear,330,2013-01-17 00:15:00
6:35 PM,26.6,14.0,59,29.89,10.0,NNW,9.2,-,N/A,,Clear,330,2013-01-17 00:35:00
6:55 PM,24.8,14.0,64,29.90,10.0,NNW,8.1,-,N/A,,Clear,330,2013-01-17 00:55:00
7:15 PM,23.0,12.2,63,29.92,10.0,North,10.4,-,N/A,,Scattered Clouds,350,2013-01-17 01:15:00
7:35 PM,23.0,10.4,59,29.93,10.0,NNW,6.9,-,N/A,,Scattered Clouds,340,2013-01-17 01:35:00
7:55 PM,21.2,10.4,63,29.94,10.0,North,11.5,16.1,N/A,,Clear,350,2013-01-17 01:55:00
8:15 PM,21.2,10.4,63,29.96,10.0,North,13.8,18.4,N/A,,Scattered Clouds,350,2013-01-17 02:15:00
8:55 PM,21.2,10.4,63,29.99,10.0,North,11.5,16.1,N/A,,Overcast,350,2013-01-17 02:55:00
9:15 PM,19.4,10.4,68,30.00,10.0,North,8.1,-,N/A,,Overcast,360,2013-01-17 03:15:00
9:35 PM,19.4,10.4,68,30.00,10.0,North,6.9,-,N/A,,Overcast,360,2013-01-17 03:35:00
9:55 PM,17.6,8.6,68,29.99,10.0,North,9.2,-,N/A,,Scattered Clouds,350,2013-01-17 03:55:00
10:15 PM,17.6,6.8,63,30.01,10.0,North,5.8,-,N/A,,Clear,350,2013-01-17 04:15:00
10:35 PM,15.8,6.8,68,30.04,10.0,NW,4.6,-,N/A,,Clear,320,2013-01-17 04:35:00
10:55 PM,15.8,5.0,62,30.05,10.0,Calm,Calm,-,N/A,,Clear,0,2013-01-17 04:55:00
11:15 PM,15.8,5.0,62,30.05,10.0,NNW,4.6,-,N/A,,Scattered Clouds,330,2013-01-17 05:15:00
11:35 PM,15.8,5.0,62,30.06,10.0,NNW,6.9,-,N/A,,Mostly Cloudy,330,2013-01-17 05:35:00
11:55 PM,14.0,5.0,67,30.07,10.0,NW,4.6,-,N/A,,Mostly Cloudy,320,2013-01-17 05:55:00